When you browse on this site, cookies collect data to enhance your experience and personalize the content and advertising you see.
Visit our Privacy Policy to learn more. By continuing to use the site, you agree to this use of cookies and data.
  • In Hungary
  • List of Countries
  • For 7 days
  • Water Temperature
  • Weather Map
  • News
  • Weather Widgets
  • user-avatar
    Login

    Hourly Weather La Coruña

    Today, 15 November, Friday

    Time Temperature Precipitation Wind Pressure Humidity
    00:00 +20°C° 0.4 mm 0 mps 709 mmHg 95%
    01:00 +20°C° 1.5 mm 0 mps 708 mmHg 96%
    02:00 +22°C° 1.5 mm 1 mps 708 mmHg 96%
    03:00 +21°C° 1.5 mm 1 mps 708 mmHg 97%
    04:00 +21°C° 0.4 mm 1 mps 708 mmHg 96%
    05:00 +21°C° 0.4 mm 1 mps 708 mmHg 96%
    06:00 +22°C° 0.4 mm 1 mps 708 mmHg 96%
    07:00 +23°C° 0 mm 1 mps 709 mmHg 93%
    08:00 +24°C° 0 mm 1 mps 709 mmHg 90%
    09:00 +25°C° 0 mm 1 mps 710 mmHg 86%
    10:00 +26°C° 0 mm 1 mps 710 mmHg 79%
    11:00 +28°C° 0 mm 1 mps 709 mmHg 71%
    12:00 +30°C° 0 mm 1 mps 709 mmHg 64%
    13:00 +29°C° 0.8 mm 1 mps 708 mmHg 67%
    14:00 +29°C° 0.8 mm 1 mps 707 mmHg 70%
    15:00 +29°C° 0.8 mm 1 mps 707 mmHg 73%
    16:00 +27°C° 0.7 mm 1 mps 707 mmHg 80%
    17:00 +25°C° 0.7 mm 1 mps 707 mmHg 86%
    18:00 +21°C° 0.7 mm 0 mps 707 mmHg 92%
    19:00 +23°C° 0.1 mm 1 mps 708 mmHg 92%
    20:00 +23°C° 0.1 mm 1 mps 709 mmHg 93%
    21:00 +23°C° 0.1 mm 1 mps 709 mmHg 93%
    22:00 +23°C° 0.1 mm 1 mps 709 mmHg 93%
    23:00 +22°C° 0.1 mm 1 mps 708 mmHg 94%

    Tomorrow, 16 November, Saturday

    Time Temperature Precipitation Wind Pressure Humidity
    00:00 +22°C° 0.1 mm 1 mps 708 mmHg 94%
    01:00 +21°C° 0 mm 1 mps 707 mmHg 94%
    02:00 +21°C° 0 mm 1 mps 707 mmHg 94%
    03:00 +21°C° 0 mm 1 mps 706 mmHg 94%
    04:00 +21°C° 0 mm 1 mps 707 mmHg 94%
    05:00 +20°C° 0 mm 1 mps 707 mmHg 94%
    06:00 +20°C° 0 mm 1 mps 707 mmHg 94%
    07:00 +22°C° 0 mm 1 mps 708 mmHg 87%
    08:00 +24°C° 0 mm 1 mps 709 mmHg 81%
    09:00 +26°C° 0 mm 1 mps 710 mmHg 74%
    10:00 +27°C° 0 mm 1 mps 709 mmHg 69%
    11:00 +28°C° 0 mm 1 mps 709 mmHg 64%
    12:00 +30°C° 0 mm 1 mps 708 mmHg 59%
    13:00 +30°C° 0 mm 1 mps 708 mmHg 60%
    14:00 +30°C° 0 mm 1 mps 707 mmHg 60%
    15:00 +30°C° 0 mm 1 mps 706 mmHg 61%
    16:00 +28°C° 0.4 mm 1 mps 706 mmHg 70%
    17:00 +26°C° 0.4 mm 1 mps 707 mmHg 78%
    18:00 +24°C° 0.4 mm 1 mps 707 mmHg 87%
    19:00 +23°C° 0.1 mm 1 mps 707 mmHg 88%
    20:00 +22°C° 0.1 mm 1 mps 707 mmHg 89%
    21:00 +21°C° 0.1 mm 1 mps 708 mmHg 90%
    22:00 +21°C° 0 mm 1 mps 708 mmHg 90%
    23:00 +21°C° 0 mm 1 mps 707 mmHg 91%

    Day after tomorrow, 17 November, Sunday

    Time Temperature Precipitation Wind Pressure Humidity
    00:00 +20°C° 0 mm 1 mps 707 mmHg 91%
    01:00 +20°C° 0 mm 1 mps 707 mmHg 92%
    02:00 +20°C° 0 mm 1 mps 706 mmHg 92%
    03:00 +19°C° 0 mm 2 mps 706 mmHg 93%
    04:00 +19°C° 0 mm 2 mps 706 mmHg 93%
    05:00 +18°C° 0 mm 2 mps 707 mmHg 93%
    06:00 +18°C° 0 mm 2 mps 707 mmHg 92%
    07:00 +20°C° 0 mm 2 mps 707 mmHg 86%
    08:00 +23°C° 0 mm 2 mps 708 mmHg 79%
    09:00 +25°C° 0 mm 2 mps 708 mmHg 73%
    10:00 +26°C° 0 mm 2 mps 708 mmHg 68%
    11:00 +28°C° 0 mm 1 mps 708 mmHg 64%
    12:00 +29°C° 0 mm 1 mps 707 mmHg 59%
    13:00 +29°C° 0 mm 1 mps 707 mmHg 60%
    14:00 +29°C° 0 mm 1 mps 706 mmHg 60%
    15:00 +29°C° 0 mm 2 mps 705 mmHg 61%
    16:00 +27°C° 0.1 mm 1 mps 706 mmHg 69%
    17:00 +25°C° 0.1 mm 1 mps 706 mmHg 77%
    18:00 +23°C° 0.1 mm 1 mps 706 mmHg 86%
    19:00 +23°C° 0 mm 1 mps 706 mmHg 86%
    20:00 +22°C° 0 mm 1 mps 707 mmHg 86%
    21:00 +22°C° 0 mm 1 mps 707 mmHg 86%
    22:00 +22°C° 0 mm 1 mps 707 mmHg 86%
    23:00 +21°C° 0 mm 1 mps 707 mmHg 87%

    18 November, Monday

    Time Temperature Precipitation Wind Pressure Humidity
    00:00 +21°C° 0 mm 1 mps 707 mmHg 87%
    01:00 +20°C° 0 mm 1 mps 706 mmHg 88%
    02:00 +20°C° 0 mm 1 mps 706 mmHg 89%
    03:00 +20°C° 0 mm 1 mps 706 mmHg 90%
    04:00 +19°C° 0 mm 1 mps 706 mmHg 91%
    05:00 +19°C° 0 mm 1 mps 706 mmHg 92%
    06:00 +19°C° 0 mm 1 mps 707 mmHg 92%
    07:00 +21°C° 0 mm 1 mps 707 mmHg 86%
    08:00 +23°C° 0 mm 1 mps 708 mmHg 80%
    09:00 +25°C° 0 mm 1 mps 708 mmHg 73%
    10:00 +26°C° 0 mm 1 mps 708 mmHg 68%
    11:00 +28°C° 0 mm 1 mps 708 mmHg 63%
    12:00 +29°C° 0 mm 1 mps 707 mmHg 58%
    13:00 +29°C° 0 mm 1 mps 707 mmHg 57%
    14:00 +29°C° 0 mm 1 mps 706 mmHg 57%
    15:00 +29°C° 0 mm 1 mps 706 mmHg 57%
    16:00 +27°C° 0 mm 1 mps 706 mmHg 68%
    17:00 +25°C° 0 mm 1 mps 706 mmHg 79%
    18:00 +21°C° 0 mm 0 mps 706 mmHg 89%
    19:00 +20°C° 0.1 mm 0 mps 707 mmHg 90%
    20:00 +22°C° 0.1 mm 1 mps 707 mmHg 90%
    21:00 +22°C° 0.1 mm 1 mps 708 mmHg 91%
    22:00 +21°C° 0 mm 1 mps 707 mmHg 91%
    23:00 +21°C° 0 mm 1 mps 707 mmHg 91%

    19 November, Tuesday

    Time Temperature Precipitation Wind Pressure Humidity
    00:00 +20°C° 0 mm 1 mps 707 mmHg 91%
    01:00 +20°C° 0 mm 1 mps 707 mmHg 92%
    02:00 +19°C° 0 mm 1 mps 707 mmHg 92%
    03:00 +19°C° 0 mm 1 mps 706 mmHg 93%
    04:00 +19°C° 0 mm 1 mps 707 mmHg 93%
    05:00 +18°C° 0 mm 1 mps 707 mmHg 94%
    06:00 +18°C° 0 mm 1 mps 707 mmHg 94%
    07:00 +20°C° 0 mm 1 mps 708 mmHg 86%
    08:00 +22°C° 0 mm 1 mps 708 mmHg 79%
    09:00 +24°C° 0 mm 1 mps 709 mmHg 71%
    10:00 +26°C° 0 mm 1 mps 709 mmHg 66%
    11:00 +27°C° 0 mm 1 mps 708 mmHg 61%
    12:00 +29°C° 0 mm 1 mps 708 mmHg 56%
    13:00 +29°C° 0 mm 1 mps 708 mmHg 55%
    14:00 +29°C° 0 mm 1 mps 707 mmHg 55%
    15:00 +29°C° 0 mm 1 mps 707 mmHg 54%
    16:00 +27°C° 0 mm 1 mps 707 mmHg 64%
    17:00 +25°C° 0 mm 1 mps 707 mmHg 75%
    18:00 +20°C° 0 mm 0 mps 707 mmHg 85%
    19:00 +22°C° 0 mm 1 mps 708 mmHg 85%
    20:00 +21°C° 0 mm 1 mps 708 mmHg 85%
    21:00 +21°C° 0 mm 1 mps 709 mmHg 85%
    22:00 +20°C° 0 mm 1 mps 708 mmHg 85%
    23:00 +20°C° 0 mm 1 mps 708 mmHg 86%

    20 November, Wednesday

    Time Temperature Precipitation Wind Pressure Humidity
    00:00 +18°C° 0 mm 2 mps 708 mmHg 87%
    01:00 +18°C° 0 mm 2 mps 708 mmHg 89%
    02:00 +17°C° 0 mm 2 mps 707 mmHg 90%
    03:00 +17°C° 0 mm 2 mps 707 mmHg 91%
    04:00 +17°C° 0 mm 2 mps 707 mmHg 92%
    05:00 +17°C° 0 mm 2 mps 708 mmHg 93%
    06:00 +17°C° 0 mm 2 mps 708 mmHg 93%
    07:00 +19°C° 0 mm 2 mps 709 mmHg 86%
    08:00 +21°C° 0 mm 2 mps 709 mmHg 79%
    09:00 +24°C° 0 mm 2 mps 710 mmHg 72%
    10:00 +25°C° 0 mm 2 mps 709 mmHg 67%
    11:00 +27°C° 0 mm 1 mps 709 mmHg 63%
    12:00 +28°C° 0 mm 1 mps 709 mmHg 58%
    13:00 +28°C° 0 mm 1 mps 708 mmHg 58%
    14:00 +29°C° 0 mm 1 mps 708 mmHg 58%
    15:00 +29°C° 0 mm 1 mps 707 mmHg 58%
    16:00 +27°C° 0 mm 1 mps 707 mmHg 66%
    17:00 +25°C° 0 mm 1 mps 707 mmHg 75%
    18:00 +20°C° 0 mm 0 mps 707 mmHg 83%
    19:00 +22°C° 0 mm 1 mps 708 mmHg 84%
    20:00 +21°C° 0 mm 1 mps 708 mmHg 84%
    21:00 +21°C° 0 mm 1 mps 709 mmHg 84%
    22:00 +20°C° 0 mm 1 mps 709 mmHg 86%
    23:00 +20°C° 0 mm 1 mps 709 mmHg 87%
    Show more